Regional Weather Roundup
Issued by NWS

Home | Current Version | Previous Version | Graphics & Text | Print | Product List | Glossary On
Versions: 1 2 3 4 5 6 7 8 9 10 11 12 13 14 15 16 17 18 19 20 21 22 23 24 25 26 27 28 29 30 31 32 33 34 35 36 37 38 39 40 41 42 43 44 45 46 47 48 49 50
000
ASUS43 KLOT 260307
RWRIL

ILLINOIS REGIONAL WEATHER ROUNDUP
NATIONAL WEATHER SERVICE CHICAGO/ROMEOVILLE IL
1000 PM CDT SAT MAR 25 2017

NOTE: "FAIR" INDICATES FEW OR NO CLOUDS BELOW 12,000 FEET WITH NO
SIGNIFICANT WEATHER AND/OR OBSTRUCTIONS TO VISIBILITY.

* THESE STATIONS ARE NOT UNDER NWS QUALITY CONTROL. THEY ALSO MAY NOT
  REPORT WEATHER SUCH AS PRECIPITATION OR FOG.

ILZ001-002-007-009-015-016-024-260400-
NORTHWEST ILLINOIS

CITY           SKY/WX    TMP DP  RH WIND       PRES   REMARKS
MOLINE         CLOUDY    48  46  93 NE10      29.89S
STERLING*      CLOUDY    44  43  96 E15       29.92F
SAVANNA*       CLOUDY    43  41  94 NE10      29.94S
$$

ILZ003-004-008-010-011-017-018-260400-
NORTH CENTRAL ILLINOIS

CITY           SKY/WX    TMP DP  RH WIND       PRES   REMARKS
ROCKFORD       CLOUDY    44  41  89 E9        29.98F
FREEPORT*      CLOUDY    41  40  97 NE10      29.98F
ROCHELLE*      CLOUDY    44  43  98 NE14      29.94F FOG
DE KALB*       CLOUDY    44  44  98 E12       29.96F FOG
PERU*          CLOUDY    47  46  96 E15       29.92F FOG
$$

ILZ005-006-012>014-019>023-260400-
NORTHEAST ILLINOIS

CITY           SKY/WX    TMP DP  RH WIND       PRES   REMARKS
CHICAGO-OHARE  LGT RAIN  46  43  89 NE8       29.98S FOG
CHICAGO-MIDWAY LGT RAIN  47  46  97 MISG      29.97S FOG
AURORA         CLOUDY    46  44  93 NE9       29.95F FOG
LANSING*       LGT RAIN  47  47 100 CALM      29.97S
JOLIET*        CLOUDY    48  48  99 NE3       29.95F FOG
WAUKEGAN       CLOUDY    40  40 100 N15       30.00F FOG
DUPAGE AIRPORT LGT RAIN  45  45 100 NE7       29.96F FOG
KANKAKEE*      RAIN      55  54  97 CALM      29.95S
WHEELING       CLOUDY    42  42 100 NE8       30.00S FOG
MORRIS*        RAIN      47  46  95 E5        29.94S
ROMEOVILLE*    CLOUDY    46  46 100 E10       29.96F FOG
$$

LMZ740>746-260400-
SOUTHERN LAKE MICHIGAN

STATION/POSITION SKY/WX   TEMP    WIND        PRES    VSBY  WAVE
                          AIR SEA DIR/SP/G                  HT/PER
                          (F)     (DEG/KT/KT) (MB)    (MI)  (FT/S)
HARRISON CRIB                      10/  4/  4   N/A
BURNHAM HARBOR             44     360/  5/  7   N/A
CALUMET HARBOR             43     360/  2/  2 1014.6R
BURNS HARBOR               54     120/ 14/ 21 1015.6S
MICHIGAN CITY              51     110/ 15/ 18   N/A
$$

ILZ025>027-034>036-040-047-049-050-058-095>099-260400-
WEST-CENTRAL ILLINOIS

CITY           SKY/WX    TMP DP  RH WIND       PRES   REMARKS
QUINCY         CLOUDY    58  57  97 E8        29.79F
GALESBURG*     CLOUDY    58  57  99 E6        29.86S
MACOMB*        CLOUDY    57  56  97 E10       29.84F
JACKSONVILLE*  DRIZZLE   55  53  92 E6        29.83F
PITTSFIELD*    CLOUDY    56  55  95 SE9       29.83R
$$

ILZ028>032-037-038-041>044-048-051>054-059>061-260400-
CENTRAL ILLINOIS

CITY           SKY/WX    TMP DP  RH WIND       PRES   REMARKS
PONTIAC        CLOUDY    57  56  99 E8        29.92F FOG
BLOOMINGTON    CLOUDY    58  56  93 SE12      29.91S
DECATUR        CLOUDY    59  55  87 SE10      29.89S
PEORIA         LGT RAIN  59  58  96 SE8       29.87F
LACON*         LGT RAIN  53  53 100 E12       29.89S
LINCOLN*       CLOUDY    59  58  99 E7        29.87F
SPRINGFIELD    LGT RAIN  60  57  89 SE9       29.85F
TAYLORVILLE    CLOUDY    59  57  94 SE8       29.86F
$$

ILZ033-039-045-046-055>057-062-063-260400-
EAST-CENTRAL ILLINOIS

CITY           SKY/WX    TMP DP  RH WIND       PRES   REMARKS
CHAMPAIGN      CLOUDY    58  54  86 E8        29.91F
RANTOUL*       CLOUDY    60  58  92 SE7       29.92F
MATTOON        CLOUDY    61  55  81 S10       29.90S
PARIS*         CLOUDY    59  56  89 SE6       29.93F
$$

ILZ079-100>102-260400-
SOUTHWEST ILLINOIS

CITY           SKY/WX    TMP DP  RH WIND       PRES   REMARKS
ALTON          PTCLDY    52  52 100 SE12      29.85S
BELLEVILLE     MOCLDY    58  58  99 S7        29.85R
CAHOKIA*       PTCLDY    57  53  86 S6        29.85R
SPARTA*        MOCLDY    57  55  94 S5        29.88S
$$

ILZ064>066-069>071-074>076-080>082-084>086-088>090-092>094-260400-
SOUTH-CENTRAL ILLINOIS

CITY           SKY/WX    TMP DP  RH WIND       PRES   REMARKS
CARBONDALE     MOCLDY    58  57  97 S9        29.88S
CAIRO*         CLOUDY    58  56  94 S7        29.90S
EFFINGHAM*     CLOUDY    59  56  89 E8        29.91F
MARION         CLOUDY    59  59 100 S7        29.91R
MT. VERNON     LGT RAIN  59  58  96 S7        29.89R
CENTRALIA*     LGT RAIN  58  55  91 S10       29.87S
SALEM*         LGT RAIN  62  56  83 S10G16    29.89R
METROPOLIS*    RAIN      60  57  90 S8        29.93R
$$

ILZ067-068-072-073-078-083-087-091-260400-
SOUTHEAST ILLINOIS

CITY           SKY/WX    TMP DP  RH WIND       PRES   REMARKS
LAWRENCEVILLE  CLOUDY    62  54  74 SE8       29.93S
FLORA*         CLOUDY    61  55  82 SE10      29.90S
FAIRFIELD*     CLOUDY    62  55  79 SE6       29.89S
HARRISBURG*    CLOUDY    62  56  82 S15       29.91S
ROBINSON*      CLOUDY    60  53  76 SE5       29.93F
CARMI*         CLOUDY    61  55  81 S12       29.91S
$$

ABBREVIATIONS USED IN REMARKS
   TC - TEMPERATURE IN CELSIUS
  WCI - WIND CHILL INDEX
   HX - HEAT INDEX
  VSB - VISIBILITY
$$




USA.gov is the U.S. government's official web portal to all federal, state and local government web resources and services.